| time (UTC) | temp C | wind direction | speed KPH | gust KPH | rain 1hr cm | rain 24hr cm | rain mn cm | humidity % | barometer mb |
| 20260510203529 | 27 | 67 | 0.0 | 3.2 | 0.00 | 0.00 | 0.00 | 74 | 1015.9 |
| 20260510203026 | 28 | 117 | 0.0 | 0.0 | 0.00 | 0.00 | 0.00 | 70 | 1015.8 |
| 20260510202525 | 27 | 24 | 3.2 | 6.4 | 0.00 | 0.00 | 0.00 | 70 | 1016.0 |
| 20260510202022 | 27 | 72 | 3.2 | 4.8 | 0.00 | 0.00 | 0.00 | 70 | 1015.8 |
| 20260510201519 | 28 | 62 | 1.6 | 4.8 | 0.00 | 0.00 | 0.00 | 69 | 1015.7 |
| 20260510201016 | 28 | 112 | 1.6 | 3.2 | 0.00 | 0.00 | 0.00 | 70 | 1015.7 |
| 20260510200511 | 28 | 95 | 0.0 | 4.8 | 0.00 | 0.00 | 0.00 | 71 | 1015.7 |
| 20260510200009 | 27 | 73 | 1.6 | 3.2 | 0.00 | 0.00 | 0.00 | 70 | 1015.7 |
| 20260510195507 | 27 | 65 | 0.0 | 1.6 | 0.00 | 0.00 | 0.00 | 74 | 1015.7 |
| 20260510195002 | 27 | 112 | 3.2 | 9.7 | 0.00 | 0.00 | 0.00 | 73 | 1015.8 |
| 20260510194458 | 27 | 199 | 4.8 | 6.4 | 0.00 | 0.00 | 0.00 | 72 | 1015.8 |
| 20260510193954 | 28 | 78 | 3.2 | 6.4 | 0.00 | 0.00 | 0.00 | 68 | 1015.9 |
| 20260510193449 | 28 | 205 | 1.6 | 3.2 | 0.00 | 0.00 | 0.00 | 74 | 1015.9 |
| 20260510192946 | 27 | 298 | 1.6 | 3.2 | 0.00 | 0.00 | 0.00 | 76 | 1015.8 |
| 20260510192445 | 27 | 158 | 0.0 | 3.2 | 0.00 | 0.00 | 0.00 | 75 | 1015.8 |
| 20260510191942 | 27 | 90 | 3.2 | 4.8 | 0.00 | 0.00 | 0.00 | 75 | 1015.8 |
| 20260510191438 | 28 | 144 | 0.0 | 3.2 | 0.00 | 0.00 | 0.00 | 74 | 1015.9 |
| 20260510190935 | 28 | 103 | 1.6 | 3.2 | 0.00 | 0.00 | 0.00 | 74 | 1016.0 |
| 20260510190433 | 28 | 301 | 3.2 | 3.2 | 0.00 | 0.00 | 0.00 | 74 | 1016.0 |
| 20260510185929 | 27 | 318 | 3.2 | 9.7 | 0.00 | 0.00 | 0.00 | 76 | 1016.2 |
| 20260510185427 | 27 | 292 | 3.2 | 4.8 | 0.00 | 0.00 | 0.00 | 75 | 1016.2 |
| 20260510184923 | 27 | 82 | 0.0 | 1.6 | 0.00 | 0.00 | 0.00 | 75 | 1016.3 |
| 20260510184421 | 28 | 333 | 6.4 | 9.7 | 0.00 | 0.00 | 0.00 | 74 | 1016.4 |
| 20260510183920 | 27 | 262 | 6.4 | 6.4 | 0.00 | 0.00 | 0.00 | 76 | 1016.4 |
| 20260510183417 | 28 | 225 | 4.8 | 9.7 | 0.00 | 0.00 | 0.00 | 73 | 1016.5 |
| 20260510182912 | 28 | 62 | 1.6 | 3.2 | 0.00 | 0.00 | 0.00 | 76 | 1016.6 |
| 20260510182409 | 27 | 75 | 3.2 | 6.4 | 0.00 | 0.00 | 0.00 | 75 | 1016.6 |
| 20260510181904 | 27 | 82 | 3.2 | 4.8 | 0.00 | 0.00 | 0.00 | 76 | 1016.7 |
| 20260510181402 | 27 | 289 | 1.6 | 9.7 | 0.00 | 0.00 | 0.00 | 77 | 1016.5 |
| 20260510180858 | 27 | 36 | 0.0 | 3.2 | 0.00 | 0.00 | 0.00 | 78 | 1016.7 |
| 20260510180355 | 27 | 267 | 6.4 | 9.7 | 0.00 | 0.00 | 0.00 | 75 | 1016.8 |
| 20260510175852 | 27 | 286 | 6.4 | 6.4 | 0.00 | 0.00 | 0.00 | 69 | 1016.8 |
| 20260510175348 | 27 | 275 | 3.2 | 6.4 | 0.00 | 0.00 | 0.00 | 69 | 1016.7 |
| 20260510174844 | 28 | 231 | 1.6 | 3.2 | 0.00 | 0.00 | 0.00 | 69 | 1016.9 |
| 20260510174342 | 28 | 86 | 1.6 | 3.2 | 0.00 | 0.00 | 0.00 | 69 | 1016.9 |
| 20260510173838 | 28 | 85 | 0.0 | 1.6 | 0.00 | 0.00 | 0.00 | 71 | 1016.9 |
| 20260510173334 | 28 | 15 | 0.0 | 1.6 | 0.00 | 0.00 | 0.00 | 69 | 1016.9 |
| 20260510172830 | 27 | 66 | 0.0 | 3.2 | 0.00 | 0.00 | 0.00 | 69 | 1017.0 |
| 20260510172327 | 27 | 0 | 1.6 | 1.6 | 0.00 | 0.00 | 0.00 | 71 | 1017.1 |
| 20260510171823 | 27 | 31 | 0.0 | 1.6 | 0.00 | 0.00 | 0.00 | 68 | 1016.9 |
| 20260510171320 | 27 | 9 | 0.0 | 1.6 | 0.00 | 0.00 | 0.00 | 71 | 1017.0 |
| 20260510170818 | 27 | 57 | 0.0 | 3.2 | 0.00 | 0.00 | 0.00 | 71 | 1017.1 |
| 20260510170314 | 27 | 261 | 1.6 | 1.6 | 0.00 | 0.00 | 0.00 | 72 | 1017.2 |
| 20260510165809 | 27 | 84 | 0.0 | 1.6 | 0.00 | 0.00 | 0.00 | 72 | 1017.1 |
| 20260510165307 | 28 | 288 | 3.2 | 4.8 | 0.00 | 0.00 | 0.00 | 68 | 1017.2 |
| 20260510164803 | 28 | 51 | 0.0 | 3.2 | 0.00 | 0.00 | 0.00 | 70 | 1017.2 |
| 20260510164300 | 27 | 124 | 0.0 | 1.6 | 0.00 | 0.00 | 0.00 | 71 | 1017.2 |
| 20260510163755 | 27 | 93 | 1.6 | 3.2 | 0.00 | 0.00 | 0.00 | 72 | 1017.2 |
| 20260510163251 | 27 | 333 | 1.6 | 3.2 | 0.00 | 0.00 | 0.00 | 71 | 1017.1 |
| 20260510162751 | 27 | 151 | 1.6 | 3.2 | 0.00 | 0.00 | 0.00 | 71 | 1017.1 |
| 20260510162248 | 27 | 257 | 0.0 | 1.6 | 0.00 | 0.00 | 0.00 | 72 | 1017.1 |
| 20260510161743 | 27 | 77 | 1.6 | 3.2 | 0.00 | 0.00 | 0.00 | 74 | 1017.1 |
| 20260510161239 | 27 | 64 | 1.6 | 1.6 | 0.00 | 0.00 | 0.00 | 74 | 1016.9 |
| 20260510160737 | 27 | 93 | 1.6 | 3.2 | 0.00 | 0.00 | 0.00 | 70 | 1017.0 |
| 20260510160232 | 27 | 98 | 1.6 | 3.2 | 0.00 | 0.00 | 0.00 | 75 | 1017.1 |
| 20260510155728 | 27 | 95 | 0.0 | 3.2 | 0.00 | 0.00 | 0.00 | 74 | 1017.0 |
| 20260510155224 | 26 | 162 | 0.0 | 1.6 | 0.00 | 0.00 | 0.00 | 75 | 1017.2 |
| 20260510154720 | 26 | 100 | 1.6 | 3.2 | 0.00 | 0.00 | 0.00 | 78 | 1017.2 |
| 20260510154216 | 26 | 162 | 0.0 | 1.6 | 0.00 | 0.00 | 0.00 | 78 | 1017.1 |
| 20260510153711 | 26 | 99 | 0.0 | 1.6 | 0.00 | 0.00 | 0.00 | 78 | 1017.1 |
| 20260510153208 | 25 | 98 | 1.6 | 1.6 | 0.00 | 0.00 | 0.00 | 81 | 1017.1 |
| 20260510152704 | 25 | 115 | 1.6 | 3.2 | 0.00 | 0.00 | 0.00 | 82 | 1017.0 |
| 20260510152200 | 25 | 87 | 0.0 | 3.2 | 0.00 | 0.00 | 0.00 | 82 | 1017.0 |
| 20260510151657 | 25 | 83 | 0.0 | 1.6 | 0.00 | 0.00 | 0.00 | 82 | 1017.0 |
| 20260510151156 | 25 | 123 | 1.6 | 3.2 | 0.00 | 0.00 | 0.00 | 81 | 1017.0 |
| 20260510150651 | 26 | 62 | 0.0 | 1.6 | 0.00 | 0.00 | 0.00 | 80 | 1017.0 |
| 20260510150146 | 26 | 89 | 1.6 | 3.2 | 0.00 | 0.00 | 0.00 | 77 | 1017.0 |
| 20260510145643 | 26 | 135 | 1.6 | 1.6 | 0.00 | 0.00 | 0.00 | 80 | 1017.2 |
| 20260510145140 | 26 | 97 | 0.0 | 1.6 | 0.00 | 0.00 | 0.00 | 83 | 1017.1 |
| 20260510144635 | 25 | 81 | 0.0 | 3.2 | 0.00 | 0.00 | 0.00 | 82 | 1017.1 |
| 20260510144132 | 25 | 48 | 1.6 | 3.2 | 0.00 | 0.00 | 0.00 | 83 | 1017.3 |
| 20260510143628 | 25 | 102 | 0.0 | 0.0 | 0.00 | 0.00 | 0.00 | 89 | 1017.1 |
| 20260510143124 | 24 | 73 | 0.0 | 1.6 | 0.00 | 0.00 | 0.00 | 91 | 1017.3 |
| 20260510142621 | 23 | 99 | 0.0 | 0.0 | 0.00 | 0.00 | 0.00 | 93 | 1017.2 |
| 20260510142118 | 23 | 70 | 0.0 | 1.6 | 0.00 | 0.00 | 0.00 | 95 | 1017.1 |
| 20260510141614 | 24 | 72 | 0.0 | 1.6 | 0.00 | 0.00 | 0.00 | 97 | 1017.3 |
| 20260510141113 | 23 | 108 | 1.6 | 3.2 | 0.00 | 0.00 | 0.00 | 99 | 1017.0 |
| 20260510140609 | 22 | 74 | 0.0 | 0.0 | 0.00 | 0.00 | 0.00 | 99 | 1017.2 |
| 20260510140108 | 22 | 64 | 1.6 | 1.6 | 0.00 | 0.00 | 0.00 | 99 | 1017.1 |
| 20260510135604 | 21 | 135 | 1.6 | 3.2 | 0.00 | 0.00 | 0.00 | 99 | 1017.0 |
| 20260510135100 | 22 | 82 | 0.0 | 1.6 | 0.00 | 0.00 | 0.00 | 99 | 1017.1 |
| 20260510134557 | 21 | 86 | 0.0 | 0.0 | 0.00 | 0.00 | 0.00 | 99 | 1017.1 |
| 20260510134054 | 21 | 83 | 0.0 | 0.0 | 0.00 | 0.00 | 0.00 | 99 | 1017.0 |
| 20260510133550 | 21 | 100 | 0.0 | 0.0 | 0.00 | 0.00 | 0.00 | 99 | 1017.1 |
| 20260510133046 | 21 | 81 | 1.6 | 3.2 | 0.00 | 0.00 | 0.00 | 99 | 1017.1 |
| 20260510132543 | 21 | 116 | 0.0 | 1.6 | 0.00 | 0.00 | 0.00 | 99 | 1017.0 |
| 20260510132040 | 21 | 84 | 0.0 | 0.0 | 0.00 | 0.00 | 0.00 | 99 | 1017.1 |
| 20260510131538 | 21 | 94 | 0.0 | 0.0 | 0.00 | 0.00 | 0.00 | 99 | 1017.1 |
| 20260510131034 | 20 | 84 | 0.0 | 0.0 | 0.00 | 0.00 | 0.00 | 99 | 1017.1 |
| 20260510130530 | 20 | 84 | 0.0 | 0.0 | 0.00 | 0.00 | 0.00 | 99 | 1017.0 |
| 20260510130028 | 20 | 99 | 0.0 | 0.0 | 0.00 | 0.00 | 0.00 | 99 | 1016.9 |
| 20260510125524 | 20 | 83 | 0.0 | 0.0 | 0.00 | 0.00 | 0.00 | 99 | 1016.7 |
| 20260510125021 | 20 | 110 | 1.6 | 1.6 | 0.00 | 0.00 | 0.00 | 99 | 1016.6 |
| 20260510124518 | 20 | 66 | 0.0 | 3.2 | 0.00 | 0.00 | 0.00 | 99 | 1016.6 |
| 20260510124015 | 20 | 11 | 1.6 | 1.6 | 0.00 | 0.00 | 0.00 | 99 | 1016.5 |
| 20260510123510 | 20 | 109 | 0.0 | 0.0 | 0.00 | 0.00 | 0.00 | 99 | 1016.4 |
| 20260510123006 | 20 | 100 | 0.0 | 0.0 | 0.00 | 0.00 | 0.00 | 99 | 1016.3 |
| 20260510122502 | 19 | 65 | 0.0 | 0.0 | 0.00 | 0.00 | 0.00 | 99 | 1016.3 |
| 20260510121958 | 19 | 97 | 0.0 | 0.0 | 0.00 | 0.00 | 0.00 | 99 | 1016.1 |
| 20260510121455 | 19 | 78 | 0.0 | 0.0 | 0.00 | 0.00 | 0.00 | 99 | 1016.0 |
| 20260510120953 | 18 | 78 | 0.0 | 0.0 | 0.00 | 0.00 | 0.00 | 99 | 1015.9 |
| 20260510120450 | 18 | 88 | 0.0 | 0.0 | 0.00 | 0.00 | 0.00 | 99 | 1015.9 |
| 20260510115945 | 18 | 96 | 0.0 | 0.0 | 0.00 | 0.00 | 0.00 | 99 | 1015.8 |
| 20260510115443 | 18 | 116 | 0.0 | 0.0 | 0.00 | 0.00 | 0.00 | 99 | 1015.9 |
| 20260510114939 | 18 | 105 | 0.0 | 0.0 | 0.00 | 0.00 | 0.00 | 99 | 1015.7 |
| 20260510114436 | 18 | 91 | 0.0 | 0.0 | 0.00 | 0.00 | 0.00 | 99 | 1015.5 |
| 20260510113931 | 18 | 89 | 0.0 | 0.0 | 0.00 | 0.00 | 0.00 | 99 | 1015.6 |
| 20260510113427 | 18 | 89 | 0.0 | 0.0 | 0.00 | 0.00 | 0.00 | 99 | 1015.4 |
| 20260510112925 | 18 | 89 | 0.0 | 0.0 | 0.00 | 0.00 | 0.00 | 99 | 1015.4 |
| 20260510112422 | 18 | 89 | 0.0 | 0.0 | 0.00 | 0.00 | 0.00 | 99 | 1015.4 |
| 20260510111918 | 18 | 89 | 0.0 | 0.0 | 0.00 | 0.00 | 0.00 | 99 | 1015.2 |
| 20260510111414 | 18 | 89 | 0.0 | 0.0 | 0.00 | 0.00 | 0.00 | 99 | 1015.3 |
| 20260510110910 | 18 | 89 | 0.0 | 0.0 | 0.00 | 0.00 | 0.00 | 99 | 1015.0 |
| 20260510110407 | 18 | 90 | 0.0 | 0.0 | 0.00 | 0.00 | 0.00 | 99 | 1015.1 |
| 20260510105903 | 18 | 64 | 0.0 | 0.0 | 0.00 | 0.00 | 0.00 | 99 | 1015.1 |
| 20260510105402 | 18 | 81 | 0.0 | 0.0 | 0.00 | 0.00 | 0.00 | 99 | 1015.0 |
| 20260510104858 | 18 | 81 | 0.0 | 0.0 | 0.00 | 0.00 | 0.00 | 99 | 1014.9 |
| 20260510104355 | 18 | 80 | 0.0 | 0.0 | 0.00 | 0.00 | 0.00 | 99 | 1015.0 |
| 20260510103852 | 18 | 80 | 0.0 | 0.0 | 0.00 | 0.00 | 0.00 | 99 | 1014.8 |
| 20260510103349 | 18 | 71 | 0.0 | 0.0 | 0.00 | 0.00 | 0.00 | 99 | 1014.7 |
| 20260510102845 | 18 | 51 | 0.0 | 0.0 | 0.00 | 0.00 | 0.00 | 99 | 1014.7 |
| 20260510102340 | 18 | 81 | 0.0 | 0.0 | 0.00 | 0.00 | 0.00 | 99 | 1014.6 |
| 20260510101838 | 18 | 81 | 0.0 | 0.0 | 0.00 | 0.00 | 0.00 | 99 | 1014.6 |
| 20260510101336 | 18 | 81 | 0.0 | 0.0 | 0.00 | 0.00 | 0.00 | 99 | 1014.4 |
| 20260510100832 | 18 | 81 | 0.0 | 0.0 | 0.00 | 0.00 | 0.00 | 99 | 1014.3 |
| 20260510100330 | 18 | 82 | 0.0 | 0.0 | 0.00 | 0.00 | 0.00 | 99 | 1014.6 |
| 20260510095826 | 18 | 82 | 0.0 | 0.0 | 0.00 | 0.00 | 0.00 | 99 | 1014.3 |
| 20260510095321 | 18 | 82 | 0.0 | 0.0 | 0.00 | 0.00 | 0.00 | 99 | 1014.3 |
| 20260510094820 | 18 | 82 | 0.0 | 0.0 | 0.00 | 0.00 | 0.00 | 99 | 1014.5 |
| 20260510094315 | 18 | 82 | 0.0 | 0.0 | 0.00 | 0.00 | 0.00 | 99 | 1014.2 |
| 20260510093812 | 18 | 82 | 0.0 | 0.0 | 0.00 | 0.00 | 0.00 | 99 | 1014.3 |
| 20260510093309 | 18 | 81 | 0.0 | 0.0 | 0.00 | 0.00 | 0.00 | 99 | 1014.0 |
| 20260510092805 | 18 | 80 | 0.0 | 0.0 | 0.00 | 0.00 | 0.00 | 99 | 1014.2 |
| 20260510092301 | 18 | 81 | 0.0 | 0.0 | 0.00 | 0.00 | 0.00 | 99 | 1013.9 |
| 20260510091756 | 18 | 81 | 0.0 | 0.0 | 0.00 | 0.00 | 0.00 | 99 | 1014.0 |
| 20260510091254 | 18 | 98 | 0.0 | 0.0 | 0.00 | 0.00 | 0.00 | 99 | 1013.9 |
| 20260510090750 | 18 | 24 | 0.0 | 0.0 | 0.00 | 0.00 | 0.00 | 99 | 1013.9 |
| 20260510090247 | 18 | 68 | 0.0 | 0.0 | 0.00 | 0.00 | 0.00 | 99 | 1013.7 |
| 20260510085743 | 18 | 64 | 0.0 | 0.0 | 0.00 | 0.00 | 0.00 | 99 | 1013.9 |
| 20260510085237 | 18 | 56 | 0.0 | 0.0 | 0.00 | 0.00 | 0.00 | 99 | 1013.9 |
| 20260510084733 | 18 | 64 | 0.0 | 0.0 | 0.00 | 0.00 | 0.00 | 99 | 1013.6 |
| 20260510084231 | 19 | 64 | 0.0 | 0.0 | 0.00 | 0.00 | 0.00 | 99 | 1013.5 |
| 20260510083727 | 19 | 62 | 0.0 | 0.0 | 0.00 | 0.00 | 0.00 | 99 | 1013.6 |
| 20260510083224 | 19 | 64 | 0.0 | 0.0 | 0.00 | 0.00 | 0.00 | 99 | 1013.5 |
| 20260510082720 | 19 | 98 | 0.0 | 0.0 | 0.00 | 0.00 | 0.00 | 99 | 1013.6 |
| 20260510082217 | 19 | 99 | 0.0 | 0.0 | 0.00 | 0.00 | 0.00 | 99 | 1013.3 |
| 20260510081716 | 19 | 99 | 0.0 | 0.0 | 0.00 | 0.00 | 0.00 | 99 | 1013.4 |
| 20260510081213 | 19 | 99 | 0.0 | 0.0 | 0.00 | 0.00 | 0.00 | 99 | 1013.2 |
| 20260510080713 | 19 | 88 | 0.0 | 0.0 | 0.00 | 0.00 | 0.00 | 99 | 1013.3 |
| 20260510080209 | 19 | 58 | 0.0 | 0.0 | 0.00 | 0.00 | 0.00 | 99 | 1013.2 |
| 20260510075706 | 19 | 58 | 0.0 | 0.0 | 0.00 | 0.00 | 0.00 | 99 | 1013.0 |
| 20260510075204 | 19 | 187 | 0.0 | 0.0 | 0.00 | 0.00 | 0.00 | 99 | 1013.1 |
| 20260510074700 | 19 | 63 | 0.0 | 0.0 | 0.00 | 0.00 | 0.00 | 99 | 1013.0 |
| 20260510074156 | 19 | 55 | 0.0 | 0.0 | 0.00 | 0.00 | 0.00 | 99 | 1012.9 |
| 20260510073653 | 19 | 59 | 0.0 | 0.0 | 0.00 | 0.00 | 0.00 | 99 | 1012.8 |
| 20260510073149 | 19 | 77 | 0.0 | 0.0 | 0.00 | 0.00 | 0.00 | 99 | 1013.0 |
| 20260510072645 | 19 | 77 | 0.0 | 0.0 | 0.00 | 0.00 | 0.00 | 99 | 1012.9 |
| 20260510072142 | 19 | 77 | 0.0 | 0.0 | 0.00 | 0.00 | 0.00 | 99 | 1013.0 |
| 20260510071638 | 19 | 68 | 0.0 | 0.0 | 0.00 | 0.00 | 0.00 | 99 | 1012.9 |
| 20260510071135 | 19 | 85 | 0.0 | 0.0 | 0.00 | 0.00 | 0.00 | 99 | 1013.0 |
| 20260510070633 | 19 | 82 | 0.0 | 0.0 | 0.00 | 0.00 | 0.00 | 99 | 1012.8 |
| 20260510070130 | 19 | 85 | 0.0 | 0.0 | 0.00 | 0.00 | 0.00 | 99 | 1012.8 |
| 20260510065626 | 19 | 84 | 0.0 | 0.0 | 0.00 | 0.00 | 0.00 | 99 | 1013.0 |
| 20260510065122 | 19 | 85 | 0.0 | 0.0 | 0.00 | 0.00 | 0.00 | 99 | 1013.0 |
| 20260510064618 | 19 | 106 | 0.0 | 0.0 | 0.00 | 0.00 | 0.00 | 99 | 1013.1 |
| 20260510064115 | 19 | 64 | 0.0 | 0.0 | 0.00 | 0.00 | 0.00 | 99 | 1013.1 |
| 20260510063612 | 19 | 64 | 0.0 | 0.0 | 0.00 | 0.00 | 0.00 | 99 | 1013.3 |
| 20260510063109 | 19 | 64 | 0.0 | 0.0 | 0.00 | 0.00 | 0.00 | 99 | 1013.2 |
| 20260510062605 | 19 | 62 | 0.0 | 0.0 | 0.00 | 0.00 | 0.00 | 99 | 1013.3 |
| 20260510062101 | 19 | 51 | 0.0 | 0.0 | 0.00 | 0.00 | 0.00 | 99 | 1013.4 |
| 20260510061557 | 19 | 51 | 0.0 | 0.0 | 0.00 | 0.00 | 0.00 | 99 | 1013.3 |
| 20260510061055 | 19 | 51 | 0.0 | 0.0 | 0.00 | 0.00 | 0.00 | 99 | 1013.2 |
| 20260510060550 | 19 | 51 | 0.0 | 0.0 | 0.00 | 0.00 | 0.00 | 99 | 1013.4 |
| 20260510060047 | 19 | 51 | 0.0 | 0.0 | 0.00 | 0.00 | 0.00 | 99 | 1013.7 |
| 20260510055543 | 19 | 51 | 0.0 | 0.0 | 0.00 | 0.00 | 0.00 | 99 | 1013.5 |
| 20260510055041 | 19 | 51 | 0.0 | 0.0 | 0.00 | 0.00 | 0.00 | 99 | 1013.8 |
| 20260510054537 | 19 | 51 | 0.0 | 0.0 | 0.00 | 0.00 | 0.00 | 99 | 1013.7 |
| 20260510054032 | 19 | 51 | 0.0 | 0.0 | 0.00 | 0.00 | 0.00 | 99 | 1013.8 |
| 20260510053527 | 19 | 51 | 0.0 | 0.0 | 0.00 | 0.00 | 0.00 | 99 | 1013.9 |
| 20260510053024 | 19 | 51 | 0.0 | 0.0 | 0.00 | 0.00 | 0.00 | 99 | 1013.7 |
| 20260510052520 | 19 | 55 | 0.0 | 0.0 | 0.00 | 0.00 | 0.00 | 99 | 1013.6 |
| 20260510052016 | 20 | 61 | 0.0 | 0.0 | 0.00 | 0.00 | 0.00 | 99 | 1013.9 |
| 20260510051512 | 20 | 61 | 0.0 | 0.0 | 0.00 | 0.00 | 0.00 | 99 | 1014.0 |
| 20260510051009 | 20 | 61 | 0.0 | 0.0 | 0.00 | 0.00 | 0.00 | 99 | 1013.9 |
| 20260510050506 | 20 | 61 | 0.0 | 0.0 | 0.00 | 0.00 | 0.00 | 99 | 1013.9 |
| 20260510050003 | 20 | 61 | 0.0 | 0.0 | 0.00 | 1.42 | 1.42 | 99 | 1013.9 |
| 20260510045500 | 20 | 61 | 0.0 | 0.0 | 0.00 | 1.42 | 1.42 | 99 | 1013.9 |
| 20260510044956 | 20 | 50 | 0.0 | 1.6 | 0.00 | 1.42 | 1.42 | 99 | 1013.9 |
| 20260510044453 | 20 | 286 | 3.2 | 3.2 | 0.00 | 1.42 | 1.42 | 99 | 1013.8 |
| 20260510043950 | 20 | 99 | 0.0 | 0.0 | 0.00 | 1.42 | 1.42 | 99 | 1013.5 |
| 20260510043445 | 20 | 85 | 0.0 | 0.0 | 0.00 | 1.42 | 1.42 | 99 | 1013.6 |
| 20260510042944 | 20 | 89 | 0.0 | 0.0 | 0.00 | 1.42 | 1.42 | 99 | 1013.8 |
| 20260510042440 | 20 | 81 | 0.0 | 0.0 | 0.00 | 1.42 | 1.42 | 99 | 1014.0 |
| 20260510041936 | 20 | 54 | 0.0 | 0.0 | 0.00 | 1.42 | 1.42 | 99 | 1014.3 |
| 20260510041433 | 20 | 48 | 0.0 | 0.0 | 0.00 | 1.42 | 1.42 | 99 | 1014.1 |
| 20260510040931 | 20 | 77 | 0.0 | 0.0 | 0.00 | 1.42 | 1.42 | 99 | 1013.9 |
| 20260510040427 | 20 | 77 | 0.0 | 0.0 | 0.18 | 1.42 | 1.42 | 99 | 1013.9 |
| 20260510035923 | 20 | 77 | 0.0 | 0.0 | 0.00 | 1.40 | 1.40 | 99 | 1014.3 |
| 20260510035419 | 20 | 77 | 0.0 | 0.0 | 0.00 | 1.40 | 1.40 | 99 | 1014.4 |
| 20260510034919 | 20 | 77 | 0.0 | 0.0 | 0.00 | 1.40 | 1.40 | 99 | 1014.4 |
| 20260510034418 | 20 | 77 | 0.0 | 0.0 | 0.00 | 1.40 | 1.40 | 98 | 1014.5 |
| 20260510033914 | 20 | 77 | 0.0 | 0.0 | 0.00 | 1.40 | 1.40 | 98 | 1014.4 |
| 20260510033410 | 20 | 77 | 0.0 | 0.0 | 0.00 | 1.40 | 1.40 | 98 | 1014.5 |
| 20260510032907 | 20 | 77 | 0.0 | 0.0 | 0.00 | 1.40 | 1.40 | 98 | 1014.3 |
| 20260510032404 | 20 | 57 | 0.0 | 0.0 | 0.00 | 1.40 | 1.40 | 98 | 1014.3 |
| 20260510031859 | 20 | 100 | 0.0 | 0.0 | 0.00 | 1.40 | 1.40 | 98 | 1014.3 |
| 20260510031355 | 20 | 78 | 0.0 | 0.0 | 0.00 | 1.40 | 1.40 | 98 | 1014.3 |
| 20260510030854 | 20 | 5 | 0.0 | 0.0 | 0.00 | 1.40 | 1.40 | 98 | 1014.2 |
| 20260510030351 | 20 | 91 | 0.0 | 0.0 | 0.00 | 1.40 | 1.40 | 98 | 1014.1 |
| 20260510025849 | 20 | 182 | 0.0 | 0.0 | 0.00 | 1.40 | 1.40 | 98 | 1014.2 |
| 20260510025346 | 20 | 69 | 0.0 | 0.0 | 0.00 | 1.40 | 1.40 | 98 | 1014.0 |
| 20260510024843 | 20 | 75 | 0.0 | 0.0 | 0.00 | 1.40 | 1.40 | 98 | 1013.9 |
| 20260510024340 | 20 | 85 | 0.0 | 0.0 | 0.00 | 1.40 | 1.40 | 98 | 1013.9 |
| 20260510023836 | 20 | 112 | 0.0 | 0.0 | 0.00 | 1.40 | 1.40 | 98 | 1013.8 |
| 20260510023332 | 20 | 91 | 0.0 | 0.0 | 0.00 | 1.40 | 1.40 | 98 | 1013.5 |
| 20260510022830 | 20 | 60 | 0.0 | 0.0 | 0.00 | 1.40 | 1.40 | 98 | 1013.6 |
| 20260510022328 | 20 | 63 | 0.0 | 0.0 | 0.00 | 1.40 | 1.40 | 98 | 1013.6 |
| 20260510021828 | 20 | 49 | 0.0 | 0.0 | 0.00 | 1.40 | 1.40 | 98 | 1013.8 |
| 20260510021326 | 20 | 55 | 0.0 | 0.0 | 0.00 | 1.40 | 1.40 | 98 | 1013.7 |
| 20260510020823 | 20 | 51 | 0.0 | 0.0 | 0.00 | 1.40 | 1.40 | 98 | 1013.5 |
| 20260510020323 | 20 | 31 | 0.0 | 0.0 | 0.00 | 1.40 | 1.40 | 98 | 1013.4 |
| 20260510015819 | 20 | 84 | 0.0 | 0.0 | 0.00 | 1.40 | 1.40 | 98 | 1013.3 |
| 20260510015315 | 20 | 84 | 0.0 | 0.0 | 0.00 | 1.40 | 1.40 | 98 | 1013.4 |
| 20260510014816 | 20 | 78 | 0.0 | 0.0 | 0.00 | 1.40 | 1.40 | 98 | 1013.4 |
| 20260510014313 | 20 | 78 | 0.0 | 0.0 | 0.00 | 1.40 | 1.40 | 98 | 1013.3 |
| 20260510013809 | 20 | 77 | 0.0 | 0.0 | 0.00 | 1.40 | 1.40 | 98 | 1013.4 |
| 20260510013306 | 20 | 95 | 0.0 | 0.0 | 0.00 | 1.40 | 1.40 | 98 | 1013.6 |
| 20260510012801 | 20 | 95 | 0.0 | 0.0 | 0.00 | 1.40 | 1.40 | 98 | 1013.7 |
| 20260510012301 | 20 | 95 | 0.0 | 0.0 | 0.00 | 1.40 | 1.40 | 98 | 1014.0 |
| 20260510011800 | 20 | 99 | 0.0 | 0.0 | 0.00 | 1.40 | 1.40 | 98 | 1014.0 |
| 20260510011256 | 20 | 99 | 0.0 | 0.0 | 0.00 | 1.40 | 1.40 | 98 | 1014.2 |
| 20260510010753 | 20 | 94 | 0.0 | 0.0 | 0.13 | 1.40 | 1.40 | 98 | 1014.0 |
| 20260510010250 | 20 | 93 | 0.0 | 0.0 | 0.00 | 1.37 | 1.37 | 98 | 1013.8 |
| 20260510005747 | 20 | 271 | 0.0 | 0.0 | 0.00 | 1.37 | 1.37 | 98 | 1014.3 |
| 20260510005243 | 20 | 65 | 0.0 | 1.6 | 0.00 | 1.37 | 1.37 | 98 | 1014.3 |
| 20260510004741 | 20 | 155 | 0.0 | 1.6 | 0.18 | 1.37 | 1.37 | 98 | 1014.2 |
| 20260510004238 | 20 | 296 | 1.6 | 1.6 | 0.18 | 1.37 | 1.37 | 98 | 1014.0 |
| 20260510003736 | 20 | 287 | 1.6 | 3.2 | 0.00 | 1.35 | 1.35 | 98 | 1014.1 |
| 20260510003232 | 20 | 269 | 3.2 | 3.2 | 0.00 | 1.35 | 1.35 | 98 | 1013.7 |
| 20260510002730 | 20 | 89 | 0.0 | 0.0 | 0.00 | 1.35 | 1.35 | 98 | 1012.8 |
| 20260510002228 | 20 | 80 | 0.0 | 0.0 | 0.00 | 1.35 | 1.35 | 98 | 1012.8 |
| 20260510001725 | 20 | 11 | 0.0 | 1.6 | 0.13 | 1.35 | 1.35 | 97 | 1012.7 |
| 20260510001224 | 20 | 165 | 1.6 | 1.6 | 0.13 | 1.35 | 1.35 | 97 | 1012.4 |
| 20260510000719 | 20 | 89 | 0.0 | 1.6 | 0.00 | 1.32 | 1.32 | 97 | 1012.2 |
| 20260510000218 | 20 | 145 | 0.0 | 3.2 | 0.00 | 1.32 | 1.32 | 97 | 1012.2 |
| 20260509235713 | 20 | 85 | 0.0 | 1.6 | 0.00 | 1.32 | 1.32 | 97 | 1011.8 |
| 20260509235210 | 20 | 94 | 1.6 | 3.2 | 0.00 | 1.32 | 1.32 | 97 | 1012.0 |
| 20260509234706 | 20 | 73 | 0.0 | 0.0 | 0.00 | 1.32 | 1.32 | 97 | 1012.2 |
| 20260509234203 | 20 | 79 | 0.0 | 0.0 | 0.00 | 1.32 | 1.32 | 97 | 1012.5 |
| 20260509233701 | 20 | 96 | 0.0 | 0.0 | 0.00 | 1.32 | 1.32 | 97 | 1012.4 |
| 20260509233159 | 20 | 85 | 0.0 | 0.0 | 0.18 | 1.32 | 1.32 | 96 | 1012.7 |
| 20260509232654 | 20 | 87 | 0.0 | 0.0 | 0.18 | 1.32 | 1.32 | 96 | 1012.8 |
| 20260509232151 | 20 | 81 | 0.0 | 0.0 | 0.00 | 1.30 | 1.30 | 96 | 1013.0 |
| 20260509231648 | 20 | 82 | 0.0 | 0.0 | 0.00 | 1.30 | 1.30 | 96 | 1012.6 |
| 20260509231145 | 21 | 81 | 0.0 | 1.6 | 0.00 | 1.30 | 1.30 | 96 | 1012.6 |
| 20260509230642 | 20 | 84 | 0.0 | 0.0 | 0.00 | 1.30 | 1.30 | 96 | 1012.8 |
| 20260509230139 | 20 | 95 | 0.0 | 0.0 | 0.00 | 1.30 | 1.30 | 96 | 1013.0 |
| 20260509225635 | 21 | 95 | 0.0 | 0.0 | 0.18 | 1.30 | 1.30 | 95 | 1013.1 |
| 20260509225131 | 21 | 95 | 0.0 | 0.0 | 0.18 | 1.30 | 1.30 | 95 | 1013.0 |
| 20260509224626 | 21 | 95 | 0.0 | 0.0 | 0.00 | 1.27 | 1.27 | 95 | 1013.2 |
| 20260509224123 | 21 | 95 | 0.0 | 0.0 | 0.13 | 1.27 | 1.27 | 95 | 1013.1 |
| 20260509223620 | 21 | 96 | 0.0 | 0.0 | 0.13 | 1.27 | 1.27 | 95 | 1012.9 |
| 20260509223118 | 21 | 85 | 0.0 | 0.0 | 0.00 | 1.24 | 1.24 | 95 | 1012.8 |
| 20260509222614 | 21 | 89 | 0.0 | 0.0 | 0.00 | 1.24 | 1.24 | 94 | 1012.9 |
| 20260509222110 | 21 | 99 | 0.0 | 0.0 | 0.18 | 1.24 | 1.24 | 94 | 1013.0 |
| 20260509221605 | 21 | 99 | 0.0 | 0.0 | 0.18 | 1.24 | 1.24 | 94 | 1012.9 |
| 20260509221102 | 21 | 95 | 0.0 | 0.0 | 0.00 | 1.22 | 1.22 | 94 | 1012.7 |
| 20260509220558 | 21 | 99 | 0.0 | 0.0 | 0.00 | 1.22 | 1.22 | 93 | 1012.7 |
| 20260509220054 | 21 | 99 | 0.0 | 0.0 | 0.00 | 1.22 | 1.22 | 93 | 1012.7 |
| 20260509215549 | 21 | 97 | 0.0 | 0.0 | 0.00 | 1.22 | 1.22 | 93 | 1012.7 |
| 20260509215047 | 21 | 71 | 0.0 | 0.0 | 0.00 | 1.22 | 1.22 | 93 | 1012.7 |
| 20260509214544 | 21 | 76 | 0.0 | 0.0 | 0.00 | 1.22 | 1.22 | 93 | 1012.5 |
| 20260509214041 | 21 | 81 | 0.0 | 1.6 | 0.00 | 1.22 | 1.22 | 93 | 1012.2 |
| 20260509213537 | 21 | 73 | 0.0 | 0.0 | 0.00 | 1.22 | 1.22 | 92 | 1012.2 |
| 20260509213034 | 21 | 87 | 0.0 | 0.0 | 0.00 | 1.22 | 1.22 | 92 | 1012.4 |
| 20260509212531 | 21 | 86 | 0.0 | 0.0 | 0.00 | 1.22 | 1.22 | 92 | 1012.4 |
| 20260509212028 | 21 | 82 | 0.0 | 1.6 | 0.00 | 1.22 | 1.22 | 91 | 1012.4 |
| 20260509211524 | 21 | 71 | 0.0 | 1.6 | 0.00 | 1.22 | 1.22 | 91 | 1013.0 |
| 20260509211021 | 21 | 86 | 0.0 | 1.6 | 0.00 | 1.22 | 1.22 | 91 | 1012.7 |
| 20260509210518 | 21 | 79 | 0.0 | 0.0 | 0.13 | 1.22 | 1.22 | 92 | 1012.7 |
| 20260509210014 | 21 | 315 | 1.6 | 1.6 | 0.13 | 1.22 | 1.22 | 92 | 1012.9 |
| 20260509205508 | 21 | 78 | 0.0 | 1.6 | 0.00 | 1.19 | 1.19 | 91 | 1012.7 |
| 20260509205004 | 21 | 84 | 0.0 | 0.0 | 0.00 | 1.19 | 1.19 | 90 | 1012.7 |
| 20260509204500 | 21 | 302 | 1.6 | 3.2 | 0.00 | 1.19 | 1.19 | 89 | 1012.9 |
| 20260509203957 | 22 | 163 | 1.6 | 3.2 | 0.00 | 1.19 | 1.19 | 88 | 1012.9 |